Regional Weather Roundup
Issued by NWS Kansas City/Pleasant Hill, MO

Home | Current Version | Previous Version | Graphics & Text | Print | Product List | Glossary Off
Versions: 1 2 3 4 5 6 7 8 9 10 11 12 13 14 15 16 17 18 19 20 21 22 23 24 25 26 27 28 29 30 31 32 33 34 35 36 37 38 39 40 41 42 43 44 45 46 47 48 49 50

000
ASUS43 KEAX 252311
RWREAX

WEATHER ROUNDUP FOR EASTERN KANSAS AND NORTHWEST MISSOURI
NATIONAL WEATHER SERVICE KANSAS CITY/PLEASANT HILL MO
600 PM CDT MON MAY 25 2015

KSZ040-057-103>105-MOZ028-029-037-043-260000-
...KANSAS CITY METROPOLITAN AREA...

CITY           SKY/WX    TMP DP  RH WIND       PRES   REMARKS
K.C. INTL      MOSUNNY   78  65  63 S20G26    29.81S
K.C. DOWNTOWN  MOSUNNY   81  64  56 S18G26    29.80S
LEES SUMMIT    PTSUNNY   80  64  58 S12G26    29.82F
OLATHE - IXD   PTSUNNY   78  64  61 S15G25    29.82S
OLATHE - OJC   PTSUNNY   78  65  63 S14G28    29.81S
LAWRENCE       PTSUNNY   80  63  55 S17G28    29.79F

$$

MOZ001>008-011>017-020>025-030>033-038>040-044>046-053-054-260000-
...NORTHERN AND CENTRAL MISSOURI...

CITY           SKY/WX    TMP DP  RH WIND       PRES   REMARKS
ST. JOSEPH     PTSUNNY   79  66  64 S16       29.78F
MOSBY          MOCLDY    81  63  54 S10G22    29.81S
WARRENSBURG    MOSUNNY   79  64  61 SE7       29.84F
WHITEMAN AFB   MOSUNNY   80  66  61 S13       29.85S
CLINTON        MOSUNNY   81  70  69 S7        29.85F
SEDALIA        SUNNY     81  64  56 S10       29.88F
WARSAW         NOT AVBL
CHILLICOTHE      N/A     79  67  66 S8        29.83F
KIRKSVILLE     MOSUNNY   78  67  68 S8        29.86F

$$

MOZ041-047>049-056>058-063>065-088>090-097-260000-
...EASTERN AND SOUTHERN MISSOURI...

CITY           SKY/WX    TMP DP  RH WIND       PRES   REMARKS
ST. LOUIS INTL MOSUNNY   84  67  56 SE15      29.91F
SPIRIT OF STL  MOSUNNY   82  66  58 VRB7G18   29.89F
COLUMBIA       MOSUNNY   80  65  59 S10       29.87F
JEFFERSON CITY PTSUNNY   84  63  49 SE14      29.86F
ROLLA          MOSUNNY   79  64  60 S12       29.90F
OSAGE BEACH    MOSUNNY   81  63  54 S10G18    29.89S
SPRINGFIELD    PTSUNNY   79  63  57 S17       29.87F
BRANSON        PTSUNNY   77  64  65 SE8       29.91F
JOPLIN         CLOUDY    78  66  66 S7        29.84F
WEST PLAINS    MOSUNNY   77  68  73 SE8       29.96S

$$

IAZ060-094-KSZ022-034>040-054-083-096-NEZ052-066-093-260000-
...KANSAS...SOUTHEAST NEBRASKA AND IOWA...

CITY           SKY/WX    TMP DP  RH WIND       PRES   REMARKS
TOPEKA         CLOUDY    79  66  64 S15G23    29.79R
MANHATTAN      LGT RAIN  66  59  78 W10G17    29.82R
EMPORIA        CLOUDY    77  64  64 S16G29    29.79S
CHANUTE        CLOUDY    75  68  78 S9        29.82F
WICHITA        TSTM      72  67  84 S13       29.79S
OMAHA          PTSUNNY   80  60  50 S16       29.73F
LINCOLN        MOSUNNY   79  61  53 SW12      29.74F
FALLS CITY     TSTM      69  60  73 SW17      29.80R
LAMONI         MOSUNNY   78  65  63 S10       29.81F
DES MOINES     PTSUNNY   80  63  55 S18       29.78F

$$



USA.gov is the U.S. government's official web portal to all federal, state and local government web resources and services.